Weather History for Pittsfield, MA

Change the Weather History Date:

Thursday, May 2, 2013

  Actual Average Record
Temperature  
Mean Temperature 58 °F 51 °F  
Max Temperature 77 °F 62 °F 85 °F (1930)
Min Temperature 39 °F 39 °F 27 °F (1943)
Degree Days  
Heating Degree Days 7 15  
Month to date heating degree days 17 30  
Since 1 July heating degree days 6653 7065  
Cooling Degree Days 0 0  
Month to date cooling degree days 0 0  
Year to date cooling degree days 0 2  
Growing Degree Days 8 (Base 50)    
Moisture  
Dew Point 38 °F    
Average Humidity 55    
Maximum Humidity 89    
Minimum Humidity 21    
Precipitation  
Precipitation 0.00 in 0.11 in 0.75 in (1930)
Month to date precipitation 0.00 0.21  
Year to date precipitation 7.89 13.04  
Sea Level Pressure  
Sea Level Pressure 30.34 in    
Wind  
Wind Speed 4 mph (West)    
Max Wind Speed 17 mph    
Max Gust Speed 28 mph    
Visibility 10 miles    
Events      
T = Trace of Precipitation, MM = Missing Value Source: NWS Daily Summary

Daily Weather History Graph

Daily Weather History Graph

Search for Another Location

Airport:

Trip Planner

Search our weather history database for the weather conditions in past years. The results will help you decide how hot, cold, wet, or windy it might be!

Date:

Astronomy

May. 02, 2013 Rise Set
Actual Time 5:46 AM EDT 7:54 PM EDT
Civil Twilight 5:15 AM EDT 8:25 PM EDT
Nautical Twilight 4:37 AM EDT 9:03 PM EDT
Astronomical Twilight 3:56 AM EDT 9:45 PM EDT
Moon 1:41 AM EDT (5/2) 12:32 PM EDT (5/2)
Length of Visible Light 15h 09m
Length of Day
14h 07m
Waning Gibbous, 48% of the Moon is Illuminated
May 2
Waning Gibbous
May 9
New
May 18
First Quarter
May 25
Full
May 31
Last Quarter

Hourly Weather History & Observations

Time (EDT) Temp. Dew Point Humidity Pressure Visibility Wind Dir Wind Speed Gust Speed Precip Events Conditions
12:54 AM 51.1 °F 39.0 °F 63% 30.40 in 10.0 mi Calm Calm - N/A   Clear
1:54 AM 46.0 °F 37.9 °F 73% 30.39 in 10.0 mi Calm Calm - N/A   Clear
2:54 AM 44.1 °F 39.0 °F 82% 30.39 in 10.0 mi Calm Calm - N/A   Clear
3:54 AM 43.0 °F 39.0 °F 86% 30.38 in 10.0 mi Calm Calm - N/A   Clear
4:54 AM 41.0 °F 37.0 °F 86% 30.38 in 10.0 mi Calm Calm - N/A   Clear
5:54 AM 41.0 °F 37.0 °F 86% 30.39 in 10.0 mi Calm Calm - N/A   Clear
6:54 AM 44.1 °F 41.0 °F 89% 30.40 in 10.0 mi Calm Calm - N/A   Clear
7:54 AM 50.0 °F 41.0 °F 71% 30.40 in 10.0 mi Calm Calm - N/A   Clear
8:54 AM 57.0 °F 42.1 °F 57% 30.40 in 10.0 mi Calm Calm - N/A   Clear
9:54 AM 62.1 °F 42.1 °F 48% 30.39 in 10.0 mi Calm Calm - N/A   Clear
10:54 AM 68.0 °F 35.1 °F 30% 30.37 in 10.0 mi Calm Calm - N/A   Clear
11:54 AM 72.0 °F 33.1 °F 24% 30.35 in 10.0 mi Variable 4.6 mph - N/A   Clear
12:54 PM 73.9 °F 36.0 °F 25% 30.32 in 10.0 mi NW 9.2 mph - N/A   Clear
1:54 PM 75.9 °F 34.0 °F 22% 30.31 in 10.0 mi Calm Calm - N/A   Clear
2:54 PM 75.0 °F 37.0 °F 25% 30.29 in 10.0 mi Variable 3.5 mph - N/A   Partly Cloudy
3:54 PM 73.9 °F 37.9 °F 27% 30.27 in 10.0 mi WSW 10.4 mph - N/A   Overcast
4:54 PM 73.9 °F 39.0 °F 28% 30.26 in 10.0 mi West 9.2 mph - N/A   Overcast
5:54 PM 73.9 °F 37.0 °F 26% 30.25 in 10.0 mi WSW 4.6 mph - N/A   Overcast
6:54 PM 72.0 °F 37.9 °F 29% 30.24 in 10.0 mi WSW 5.8 mph - N/A   Overcast
7:54 PM 70.0 °F 37.9 °F 31% 30.25 in 10.0 mi ENE 10.4 mph 17.3 mph N/A   Overcast
8:54 PM 62.1 °F 36.0 °F 38% 30.32 in 10.0 mi East 11.5 mph 21.9 mph N/A   Overcast
9:54 PM 57.9 °F 39.0 °F 49% 30.34 in 10.0 mi Variable 6.9 mph 18.4 mph N/A   Overcast
10:54 PM 55.0 °F 35.1 °F 47% 30.36 in 10.0 mi ENE 10.4 mph 16.1 mph N/A   Overcast
11:54 PM 53.1 °F 34.0 °F 48% 30.36 in 10.0 mi East 6.9 mph - N/A   Overcast